| time (UTC) | temp C | wind direction | speed KPH | gust KPH | rain 1hr cm | rain 24hr cm | rain mn cm | humidity % | barometer mb |
| 20260508122308 | 15 | 157 | 4.8 | 11.3 | 0.00 | 0.00 | 0.00 | 72 | 1014.8 |
| 20260508121810 | 15 | 231 | 4.8 | 8.0 | 0.00 | 0.00 | 0.00 | 72 | 1014.7 |
| 20260508120807 | -17 | 0.0 | 0.0 | 0.00 | 0.00 | 0.00 | 1014.5 | ||
| 20260508120310 | 14 | 8 | 1.6 | 3.2 | 0.00 | 0.00 | 0.00 | 74 | 1014.6 |
| 20260508115808 | 14 | 8 | 1.6 | 6.4 | 0.00 | 0.00 | 0.00 | 74 | 1014.6 |
| 20260508115306 | 14 | 0 | 1.6 | 9.7 | 0.00 | 0.00 | 0.00 | 74 | 1014.6 |
| 20260508114805 | 14 | 140 | 1.6 | 9.7 | 0.00 | 0.00 | 0.00 | 73 | 1014.7 |
| 20260508114259 | 13 | 130 | 3.2 | 6.4 | 0.00 | 0.00 | 0.00 | 74 | 1014.6 |
| 20260508113801 | 13 | 61 | 3.2 | 9.7 | 0.00 | 0.00 | 0.00 | 74 | 1014.6 |
| 20260508113256 | 13 | 135 | 3.2 | 9.7 | 0.00 | 0.00 | 0.00 | 74 | 1014.6 |
| 20260508112757 | 13 | 42 | 3.2 | 11.3 | 0.00 | 0.00 | 0.00 | 74 | 1014.7 |
| 20260508112255 | 13 | 73 | 6.4 | 11.3 | 0.00 | 0.00 | 0.00 | 75 | 1014.6 |
| 20260508111758 | 13 | 96 | 1.6 | 8.0 | 0.00 | 0.00 | 0.00 | 76 | 1014.6 |
| 20260508111256 | 13 | 56 | 3.2 | 9.7 | 0.00 | 0.00 | 0.00 | 75 | 1014.5 |
| 20260508110756 | 13 | 48 | 3.2 | 9.7 | 0.00 | 0.00 | 0.00 | 75 | 1014.5 |
| 20260508110254 | 13 | 106 | 3.2 | 9.7 | 0.00 | 0.00 | 0.00 | 75 | 1014.4 |
| 20260508105754 | 13 | 68 | 1.6 | 8.0 | 0.00 | 0.00 | 0.00 | 74 | 1014.4 |
| 20260508104753 | 13 | 25 | 3.2 | 8.0 | 0.00 | 0.00 | 0.00 | 73 | 1014.4 |
| 20260508104252 | 13 | 0 | 1.6 | 8.0 | 0.00 | 0.00 | 0.00 | 73 | 1014.4 |
| 20260508103753 | 13 | 278 | 3.2 | 8.0 | 0.00 | 0.00 | 0.00 | 73 | 1014.4 |
| 20260508103254 | 13 | 72 | 1.6 | 8.0 | 0.00 | 0.00 | 0.00 | 73 | 1014.3 |
| 20260508101753 | 13 | 111 | 1.6 | 6.4 | 0.00 | 0.00 | 0.00 | 73 | 1014.4 |
| 20260508101252 | 13 | 23 | 1.6 | 6.4 | 0.00 | 0.00 | 0.00 | 73 | 1014.3 |
| 20260508100752 | 14 | 348 | 3.2 | 8.0 | 0.00 | 0.00 | 0.00 | 73 | 1014.2 |
| 20260508100251 | 14 | 83 | 3.2 | 11.3 | 0.00 | 0.00 | 0.00 | 73 | 1014.2 |
| 20260508094755 | 14 | 162 | 3.2 | 9.7 | 0.00 | 0.00 | 0.00 | 75 | 1014.3 |
| 20260508094252 | 14 | 104 | 3.2 | 9.7 | 0.00 | 0.00 | 0.00 | 75 | 1014.2 |
| 20260508093756 | 14 | 127 | 3.2 | 8.0 | 0.00 | 0.00 | 0.00 | 76 | 1014.2 |
| 20260508093251 | 14 | 44 | 3.2 | 8.0 | 0.00 | 0.00 | 0.00 | 77 | 1014.0 |
| 20260508092754 | 13 | 286 | 3.2 | 9.7 | 0.00 | 0.00 | 0.00 | 76 | 1014.0 |
| 20260508092253 | 13 | 51 | 3.2 | 9.7 | 0.00 | 0.00 | 0.00 | 76 | 1013.9 |
| 20260508091752 | 13 | 114 | 4.8 | 9.7 | 0.00 | 0.00 | 0.00 | 77 | 1013.9 |
| 20260508091252 | 13 | 128 | 3.2 | 8.0 | 0.00 | 0.00 | 0.00 | 76 | 1014.0 |
| 20260508090753 | 13 | 80 | 3.2 | 8.0 | 0.00 | 0.00 | 0.00 | 76 | 1013.9 |
| 20260508090252 | 13 | 0 | 3.2 | 4.8 | 0.00 | 0.00 | 0.00 | 76 | 1014.0 |
| 20260508085755 | -17 | 0.0 | 0.0 | 0.00 | 0.00 | 0.00 | 1014.0 | ||
| 20260508085254 | -17 | 0.0 | 0.0 | 0.00 | 0.00 | 0.00 | 1013.9 | ||
| 20260508084756 | -17 | 0.0 | 0.0 | 0.00 | 0.00 | 0.00 | 1013.9 | ||
| 20260508084254 | 12 | 157 | 1.6 | 1.6 | 0.00 | 0.00 | 0.00 | 86 | 1013.9 |
| 20260508083754 | 12 | 157 | 1.6 | 1.6 | 0.00 | 0.00 | 0.00 | 86 | 1013.9 |
| 20260508083254 | -17 | 344 | 1.6 | 1.6 | 0.00 | 0.00 | 0.00 | 1013.9 | |
| 20260508082753 | -17 | 344 | 1.6 | 1.6 | 0.00 | 0.00 | 0.00 | 1013.9 | |
| 20260508082253 | -17 | 58 | 4.8 | 4.8 | 0.00 | 0.00 | 0.00 | 1013.8 | |
| 20260508081751 | -17 | 58 | 4.8 | 4.8 | 0.00 | 0.00 | 0.00 | 1013.8 | |
| 20260508081249 | -17 | 0.0 | 0.0 | 0.00 | 0.00 | 0.00 | 1013.8 | ||
| 20260508080753 | -17 | 0.0 | 0.0 | 0.00 | 0.00 | 0.00 | 1013.8 | ||
| 20260508080250 | -17 | 0.0 | 0.0 | 0.00 | 0.00 | 0.00 | 1013.7 | ||
| 20260508075753 | 11 | 93 | 3.2 | 6.4 | 0.00 | 0.00 | 0.00 | 86 | 1013.8 |
| 20260508074741 | 10 | 58 | 1.6 | 4.8 | 0.00 | 0.00 | 0.00 | 86 | 1013.7 |
| 20260508074240 | 10 | 118 | 3.2 | 4.8 | 0.00 | 0.00 | 0.00 | 87 | 1013.7 |
| 20260508073742 | 10 | 140 | 3.2 | 3.2 | 0.00 | 0.00 | 0.00 | 87 | 1013.6 |
| 20260508073239 | 10 | 123 | 1.6 | 4.8 | 0.00 | 0.00 | 0.00 | 87 | 1013.5 |
| 20260508072737 | 10 | 127 | 3.2 | 4.8 | 0.00 | 0.00 | 0.00 | 87 | 1013.5 |
| 20260508072235 | 10 | 137 | 1.6 | 3.2 | 0.00 | 0.00 | 0.00 | 87 | 1013.4 |
| 20260508071733 | 9 | 68 | 1.6 | 1.6 | 0.00 | 0.00 | 0.00 | 85 | 1013.4 |
| 20260508071234 | 9 | 44 | 0.0 | 1.6 | 0.00 | 0.00 | 0.00 | 85 | 1013.4 |
| 20260508070232 | -17 | 0.0 | 0.0 | 0.00 | 0.00 | 0.00 | 1013.4 | ||
| 20260508065737 | -17 | 0.0 | 0.0 | 0.00 | 0.00 | 0.00 | 1013.4 | ||
| 20260508064234 | -17 | 0.0 | 0.0 | 0.00 | 0.00 | 0.00 | 1013.1 | ||
| 20260508063733 | -17 | 0.0 | 0.0 | 0.00 | 0.00 | 0.00 | 1013.2 | ||
| 20260508063233 | -17 | 0.0 | 0.0 | 0.00 | 0.00 | 0.00 | 1013.1 | ||
| 20260508062735 | 8 | 213 | 0.0 | 0.0 | 0.00 | 0.00 | 0.00 | 85 | 1013.0 |
| 20260508062234 | 8 | 213 | 0.0 | 0.0 | 0.00 | 0.00 | 0.00 | 85 | 1013.0 |
| 20260508061733 | -17 | 0.0 | 0.0 | 0.00 | 0.00 | 0.00 | 1013.0 | ||
| 20260508061234 | -17 | 0.0 | 0.0 | 0.00 | 0.00 | 0.00 | 1012.9 | ||
| 20260508060731 | -17 | 0.0 | 0.0 | 0.00 | 0.00 | 0.00 | 1012.9 | ||
| 20260508060233 | -17 | 0.0 | 0.0 | 0.00 | 0.00 | 0.00 | 1012.8 | ||
| 20260508055731 | -17 | 0.0 | 0.0 | 0.00 | 0.00 | 0.00 | 1012.7 | ||
| 20260508055231 | -17 | 0.0 | 0.0 | 0.00 | 0.00 | 0.00 | 1012.7 | ||
| 20260508053734 | 7 | 261 | 0.0 | 0.0 | 0.00 | 0.00 | 0.00 | 67 | 1012.7 |
| 20260508052715 | -17 | 0.0 | 0.0 | 0.00 | 0.00 | 0.00 | 1012.7 | ||
| 20260508052215 | -17 | 0.0 | 0.0 | 0.00 | 0.00 | 0.00 | 1012.7 | ||
| 20260508051714 | -17 | 0.0 | 0.0 | 0.00 | 0.00 | 0.00 | 1012.7 | ||
| 20260508051211 | -17 | 0.0 | 0.0 | 0.00 | 0.00 | 0.00 | 1012.6 | ||
| 20260508050713 | -17 | 0.0 | 0.0 | 0.00 | 0.00 | 0.00 | 1012.5 | ||
| 20260508050211 | -17 | 0.0 | 0.0 | 0.00 | 0.00 | 0.00 | 1012.5 | ||
| 20260508045210 | -17 | 0.0 | 0.0 | 0.00 | 0.00 | 0.00 | 1012.6 | ||
| 20260508044711 | -17 | 0.0 | 0.0 | 0.00 | 0.00 | 0.00 | 1012.5 | ||
| 20260508044210 | -17 | 0.0 | 0.0 | 0.00 | 0.00 | 0.00 | 1012.4 | ||
| 20260508043718 | -17 | 0.0 | 0.0 | 0.00 | 0.00 | 0.00 | 1012.4 | ||
| 20260508042726 | -17 | 0.0 | 0.0 | 0.00 | 0.00 | 0.00 | 1012.3 | ||
| 20260508042207 | -17 | 0.0 | 0.0 | 0.00 | 0.00 | 0.00 | 1012.3 | ||
| 20260508041710 | -17 | 0.0 | 0.0 | 0.00 | 0.00 | 0.00 | 1012.3 | ||
| 20260508041206 | -17 | 0.0 | 0.0 | 0.00 | 0.00 | 0.00 | 1012.4 | ||
| 20260508040710 | -17 | 0.0 | 0.0 | 0.00 | 0.00 | 0.00 | 1012.3 | ||
| 20260508040203 | -17 | 0.0 | 0.0 | 0.00 | 0.00 | 0.00 | 1012.3 | ||
| 20260508035710 | -17 | 0.0 | 0.0 | 0.00 | 0.00 | 0.00 | 1012.3 | ||
| 20260508035202 | -17 | 0.0 | 0.0 | 0.00 | 0.00 | 0.00 | 1012.2 | ||
| 20260508034705 | -17 | 0.0 | 0.0 | 0.00 | 0.00 | 0.00 | 1012.2 | ||
| 20260508033701 | -17 | 0.0 | 0.0 | 0.00 | 0.00 | 0.00 | 1012.2 | ||
| 20260508033157 | -17 | 0.0 | 0.0 | 0.00 | 0.00 | 0.00 | 1012.2 | ||
| 20260508032656 | -17 | 0.0 | 0.0 | 0.00 | 0.00 | 0.00 | 1012.2 | ||
| 20260508032153 | -17 | 0.0 | 0.0 | 0.00 | 0.00 | 0.00 | 1012.2 | ||
| 20260508031656 | -17 | 0.0 | 0.0 | 0.00 | 0.00 | 0.00 | 1012.2 | ||
| 20260508031152 | -17 | 0.0 | 0.0 | 0.00 | 0.00 | 0.00 | 1012.2 | ||
| 20260508030152 | -17 | 0.0 | 0.0 | 0.00 | 0.00 | 0.00 | 1012.2 | ||
| 20260508025653 | -17 | 0.0 | 0.0 | 0.00 | 0.00 | 0.00 | 1012.1 | ||
| 20260508025153 | -17 | 0.0 | 0.0 | 0.00 | 0.00 | 0.00 | 1012.1 | ||
| 20260508024654 | -17 | 0.0 | 0.0 | 0.00 | 0.00 | 0.00 | 1012.2 | ||
| 20260508024147 | -17 | 0.0 | 0.0 | 0.00 | 0.00 | 0.00 | 1012.1 | ||
| 20260508023649 | -17 | 0.0 | 0.0 | 0.00 | 0.00 | 0.00 | 1012.2 | ||
| 20260508023148 | -17 | 0.0 | 0.0 | 0.00 | 0.00 | 0.00 | 1012.1 | ||
| 20260508022651 | -17 | 0.0 | 0.0 | 0.00 | 0.00 | 0.00 | 1012.1 | ||
| 20260508022144 | -17 | 0.0 | 0.0 | 0.00 | 0.00 | 0.00 | 1012.1 | ||
| 20260508021641 | -17 | 0.0 | 0.0 | 0.00 | 0.00 | 0.00 | 1012.0 | ||
| 20260508021141 | -17 | 0.0 | 0.0 | 0.00 | 0.00 | 0.00 | 1012.0 | ||
| 20260508020644 | -17 | 0.0 | 0.0 | 0.00 | 0.00 | 0.00 | 1012.0 | ||
| 20260508020140 | -17 | 0.0 | 0.0 | 0.00 | 0.00 | 0.00 | 1011.9 | ||
| 20260508015641 | -17 | 0.0 | 0.0 | 0.00 | 0.00 | 0.00 | 1011.9 | ||
| 20260508015139 | -17 | 0.0 | 0.0 | 0.00 | 0.00 | 0.00 | 1011.8 | ||
| 20260508014639 | -17 | 0.0 | 0.0 | 0.00 | 0.00 | 0.00 | 1011.9 | ||
| 20260508014135 | -17 | 0.0 | 0.0 | 0.00 | 0.00 | 0.00 | 1011.8 | ||
| 20260508013638 | -17 | 0.0 | 0.0 | 0.00 | 0.00 | 0.00 | 1011.8 | ||
| 20260508013132 | -17 | 0.0 | 0.0 | 0.00 | 0.00 | 0.00 | 1011.8 | ||
| 20260508012131 | -17 | 0.0 | 0.0 | 0.00 | 0.00 | 0.00 | 1011.8 | ||
| 20260508011128 | -17 | 0.0 | 0.0 | 0.00 | 0.00 | 0.00 | 1011.9 | ||
| 20260508010128 | -17 | 0.0 | 0.0 | 0.00 | 0.00 | 0.00 | 1011.9 | ||
| 20260508005627 | -17 | 0.0 | 0.0 | 0.00 | 0.00 | 0.00 | 1011.9 | ||
| 20260508005124 | -17 | 0.0 | 0.0 | 0.00 | 0.00 | 0.00 | 1011.8 | ||
| 20260508004626 | -17 | 0.0 | 0.0 | 0.00 | 0.00 | 0.00 | 1011.8 | ||
| 20260508004122 | -17 | 0.0 | 0.0 | 0.00 | 0.00 | 0.00 | 1011.8 | ||
| 20260508003624 | -17 | 0.0 | 0.0 | 0.00 | 0.00 | 0.00 | 1011.7 | ||
| 20260508003119 | -17 | 0.0 | 0.0 | 0.00 | 0.00 | 0.00 | 1011.9 | ||
| 20260508002621 | -17 | 0.0 | 0.0 | 0.00 | 0.00 | 0.00 | 1011.9 | ||
| 20260508002116 | -17 | 0.0 | 0.0 | 0.00 | 0.00 | 0.00 | 1011.9 | ||
| 20260508001624 | -17 | 0.0 | 0.0 | 0.00 | 0.00 | 0.00 | 1012.0 | ||
| 20260508001114 | -17 | 0.0 | 0.0 | 0.00 | 0.00 | 0.00 | 1012.0 | ||
| 20260508000619 | -17 | 0.0 | 0.0 | 0.00 | 0.00 | 0.00 | 1012.0 | ||
| 20260508000111 | -17 | 0.0 | 0.0 | 0.00 | 0.00 | 0.00 | 1012.0 | ||
| 20260507235609 | -17 | 0.0 | 0.0 | 0.00 | 0.00 | 0.00 | 1012.0 | ||
| 20260507235108 | -17 | 0.0 | 0.0 | 0.00 | 0.00 | 0.00 | 1012.0 | ||
| 20260507234605 | -17 | 0.0 | 0.0 | 0.00 | 0.00 | 0.00 | 1012.0 | ||
| 20260507234103 | -17 | 0.0 | 0.0 | 0.00 | 0.00 | 0.00 | 1011.9 | ||
| 20260507233605 | -17 | 0.0 | 0.0 | 0.00 | 0.00 | 0.00 | 1012.0 | ||
| 20260507233102 | -17 | 0.0 | 0.0 | 0.00 | 0.00 | 0.00 | 1011.9 | ||
| 20260507232602 | -17 | 0.0 | 0.0 | 0.00 | 0.00 | 0.00 | 1011.9 | ||
| 20260507232059 | -17 | 0.0 | 0.0 | 0.00 | 0.00 | 0.00 | 1011.8 | ||
| 20260507231601 | -17 | 0.0 | 0.0 | 0.00 | 0.00 | 0.00 | 1011.8 | ||
| 20260507231056 | -17 | 0.0 | 0.0 | 0.00 | 0.00 | 0.00 | 1011.8 | ||
| 20260507230054 | -17 | 0.0 | 0.0 | 0.00 | 0.00 | 0.00 | 1011.7 | ||
| 20260507225554 | -17 | 0.0 | 0.0 | 0.00 | 0.00 | 0.00 | 1011.6 | ||
| 20260507225052 | -17 | 0.0 | 0.0 | 0.00 | 0.00 | 0.00 | 1011.5 | ||
| 20260507224049 | -17 | 0.0 | 0.0 | 0.00 | 0.00 | 0.00 | 1011.5 | ||
| 20260507223552 | -17 | 0.0 | 0.0 | 0.00 | 0.00 | 0.00 | 1011.6 | ||
| 20260507223051 | -17 | 216 | 0.0 | 0.0 | 0.00 | 0.00 | 0.00 | 1011.5 | |
| 20260507222549 | -17 | 216 | 0.0 | 0.0 | 0.00 | 0.00 | 0.00 | 1011.5 | |
| 20260507222047 | -17 | 0.0 | 0.0 | 0.00 | 0.00 | 0.00 | 1011.5 | ||
| 20260507221547 | -17 | 0.0 | 0.0 | 0.00 | 0.00 | 0.00 | 1011.5 | ||
| 20260507221044 | -17 | 0.0 | 0.0 | 0.00 | 0.00 | 0.00 | 1011.4 | ||
| 20260507220546 | -17 | 0.0 | 0.0 | 0.00 | 0.00 | 0.00 | 1011.3 | ||
| 20260507215539 | -17 | 0.0 | 0.0 | 0.00 | 0.00 | 0.00 | 1011.3 | ||
| 20260507215039 | -17 | 0.0 | 0.0 | 0.00 | 0.00 | 0.00 | 1011.3 | ||
| 20260507214539 | -17 | 0.0 | 0.0 | 0.00 | 0.00 | 0.00 | 1011.3 | ||
| 20260507214037 | -17 | 0.0 | 0.0 | 0.00 | 0.00 | 0.00 | 1011.2 | ||
| 20260507213540 | -17 | 0.0 | 0.0 | 0.00 | 0.00 | 0.00 | 1011.2 | ||
| 20260507213036 | -17 | 0.0 | 0.0 | 0.00 | 0.00 | 0.00 | 1011.2 | ||
| 20260507212535 | -17 | 0.0 | 0.0 | 0.00 | 0.00 | 0.00 | 1011.1 | ||
| 20260507212036 | -17 | 0.0 | 0.0 | 0.00 | 0.00 | 0.00 | 1011.1 | ||
| 20260507211032 | -17 | 0.0 | 0.0 | 0.00 | 0.00 | 0.00 | 1011.1 | ||
| 20260507210033 | -17 | 250 | 3.2 | 3.2 | 0.00 | 0.00 | 0.00 | 1010.9 | |
| 20260507205530 | -17 | 214 | 3.2 | 3.2 | 0.00 | 0.00 | 0.00 | 1011.0 | |
| 20260507205027 | -17 | 214 | 3.2 | 3.2 | 0.00 | 0.00 | 0.00 | 1010.9 | |
| 20260507204027 | -17 | 0.0 | 0.0 | 0.00 | 0.00 | 0.00 | 1010.8 | ||
| 20260507203527 | -17 | 0.0 | 0.0 | 0.00 | 0.00 | 0.00 | 1010.8 | ||
| 20260507203025 | -17 | 0.0 | 0.0 | 0.00 | 0.00 | 0.00 | 1010.7 | ||
| 20260507202524 | -17 | 0.0 | 0.0 | 0.00 | 0.00 | 0.00 | 1010.7 | ||
| 20260507202022 | -17 | 0.0 | 0.0 | 0.00 | 0.00 | 0.00 | 1010.6 | ||
| 20260507201523 | -17 | 0.0 | 0.0 | 0.00 | 0.00 | 0.00 | 1010.6 | ||
| 20260507201021 | -17 | 0.0 | 0.0 | 0.00 | 0.00 | 0.00 | 1010.5 | ||
| 20260507200522 | -17 | 0.0 | 0.0 | 0.00 | 0.00 | 0.00 | 1010.5 | ||
| 20260507200020 | -17 | 0.0 | 0.0 | 0.00 | 0.00 | 0.00 | 1010.5 | ||
| 20260507195512 | -17 | 0.0 | 0.0 | 0.00 | 0.00 | 0.00 | 1010.4 | ||
| 20260507195012 | -17 | 0.0 | 0.0 | 0.00 | 0.00 | 0.00 | 1010.4 | ||
| 20260507194511 | -17 | 207 | 11.3 | 11.3 | 0.00 | 0.00 | 0.00 | 1010.3 | |
| 20260507194007 | -17 | 207 | 11.3 | 11.3 | 0.00 | 0.00 | 0.00 | 1010.3 | |
| 20260507193507 | -17 | 0.0 | 0.0 | 0.00 | 0.00 | 0.00 | 1010.3 | ||
| 20260507192507 | 13 | 217 | 6.4 | 8.0 | 0.00 | 0.00 | 0.00 | 61 | 1010.2 |
| 20260507191510 | -17 | 0.0 | 0.0 | 0.00 | 0.00 | 0.00 | 1010.1 | ||
| 20260507191008 | 13 | 185 | 12.9 | 17.7 | 0.00 | 0.00 | 0.00 | 61 | 1010.1 |
| 20260507190508 | 13 | 185 | 12.9 | 17.7 | 0.00 | 0.00 | 0.00 | 61 | 1010.0 |
| 20260507190007 | -17 | 0.0 | 0.0 | 0.00 | 0.00 | 0.00 | 1009.9 | ||
| 20260507185508 | -17 | 0.0 | 0.0 | 0.00 | 0.00 | 0.00 | 1009.9 | ||
| 20260507185007 | -17 | 0.0 | 0.0 | 0.00 | 0.00 | 0.00 | 1009.8 | ||
| 20260507184504 | -17 | 0.0 | 0.0 | 0.00 | 0.00 | 0.00 | 1009.8 | ||
| 20260507184002 | -17 | 0.0 | 0.0 | 0.00 | 0.00 | 0.00 | 1009.9 | ||
| 20260507183509 | -17 | 0.0 | 0.0 | 0.00 | 0.00 | 0.00 | 1009.8 | ||
| 20260507183002 | -17 | 0.0 | 0.0 | 0.00 | 0.00 | 0.00 | 1009.7 | ||
| 20260507182506 | -17 | 0.0 | 0.0 | 0.00 | 0.00 | 0.00 | 1009.7 | ||
| 20260507182002 | -17 | 0.0 | 0.0 | 0.00 | 0.00 | 0.00 | 1009.7 | ||
| 20260507181505 | -17 | 0.0 | 0.0 | 0.00 | 0.00 | 0.00 | 1009.7 | ||
| 20260507181003 | 14 | 179 | 6.4 | 9.7 | 0.00 | 0.00 | 0.00 | 61 | 1009.7 |
| 20260507180005 | 14 | 265 | 4.8 | 6.4 | 0.00 | 0.00 | 0.00 | 61 | 1009.7 |
| 20260507175005 | -17 | 113 | 3.2 | 0.0 | 0.00 | 0.00 | 0.00 | 1009.6 | |
| 20260507174508 | 15 | 113 | 3.2 | 8.0 | 0.00 | 0.00 | 0.00 | 62 | 1009.6 |
| 20260507173947 | 15 | 183 | 3.2 | 8.0 | 0.00 | 0.00 | 0.00 | 62 | 1009.6 |
| 20260507173450 | 15 | 180 | 3.2 | 4.8 | 0.00 | 0.00 | 0.00 | 62 | 1009.5 |
| 20260507172446 | -17 | 0.0 | 0.0 | 0.00 | 0.00 | 0.00 | 1009.6 | ||
| 20260507171944 | -17 | 0.0 | 0.0 | 0.00 | 0.00 | 0.00 | 1009.6 | ||
| 20260507171442 | -17 | 0.0 | 0.0 | 0.00 | 0.00 | 0.00 | 1009.5 | ||
| 20260507170939 | -17 | 0.0 | 0.0 | 0.00 | 0.00 | 0.00 | 1009.6 | ||
| 20260507170443 | 15 | 220 | 4.8 | 1.6 | 0.00 | 0.00 | 0.00 | 69 | 1009.6 |
| 20260507165940 | 15 | 220 | 4.8 | 9.7 | 0.00 | 0.00 | 0.00 | 69 | 1009.6 |
| 20260507164938 | -17 | 0.0 | 0.0 | 0.00 | 0.00 | 0.00 | 1009.6 | ||
| 20260507164440 | -17 | 0.0 | 0.0 | 0.00 | 0.00 | 0.00 | 1009.6 | ||
| 20260507163939 | -17 | 0.0 | 0.0 | 0.00 | 0.00 | 0.00 | 1009.6 | ||
| 20260507163441 | -17 | 0.0 | 0.0 | 0.00 | 0.00 | 0.00 | 1009.7 | ||
| 20260507162937 | -17 | 0.0 | 0.0 | 0.00 | 0.00 | 0.00 | 1009.6 | ||
| 20260507162442 | -17 | 166 | 8.0 | 8.0 | 0.00 | 0.00 | 0.00 | 1009.7 | |
| 20260507161440 | 15 | 233 | 11.3 | 24.1 | 0.00 | 0.00 | 0.00 | 61 | 1009.5 |
| 20260507160934 | 15 | 130 | 8.0 | 17.7 | 0.00 | 0.00 | 0.00 | 60 | 1009.5 |
| 20260507160438 | 16 | 202 | 4.8 | 14.5 | 0.00 | 0.00 | 0.00 | 58 | 1009.5 |
| 20260507155934 | 16 | 223 | 6.4 | 16.1 | 0.00 | 0.00 | 0.00 | 58 | 1009.4 |
| 20260507154944 | 16 | 161 | 6.4 | 14.5 | 0.00 | 0.00 | 0.00 | 56 | 1009.5 |
| 20260507154436 | 16 | 241 | 4.8 | 16.1 | 0.00 | 0.00 | 0.00 | 57 | 1009.5 |
| 20260507153933 | 16 | 292 | 1.6 | 16.1 | 0.00 | 0.00 | 0.00 | 57 | 1009.6 |
| 20260507153434 | 16 | 193 | 8.0 | 16.1 | 0.00 | 0.00 | 0.00 | 56 | 1009.6 |
| 20260507152933 | 16 | 157 | 6.4 | 19.3 | 0.00 | 0.00 | 0.00 | 55 | 1009.5 |
| 20260507152436 | 16 | 240 | 8.0 | 19.3 | 0.00 | 0.00 | 0.00 | 56 | 1009.6 |
| 20260507151938 | 16 | 173 | 3.2 | 19.3 | 0.00 | 0.00 | 0.00 | 55 | 1009.5 |
| 20260507151436 | 16 | 197 | 8.0 | 19.3 | 0.00 | 0.00 | 0.00 | 53 | 1009.6 |
| 20260507150937 | 16 | 166 | 8.0 | 14.5 | 0.00 | 0.00 | 0.00 | 55 | 1009.5 |
| 20260507150437 | 16 | 182 | 4.8 | 11.3 | 0.00 | 0.00 | 0.00 | 54 | 1009.6 |
| 20260507145430 | 16 | 158 | 3.2 | 11.3 | 0.00 | 0.00 | 0.00 | 57 | 1009.6 |
| 20260507144930 | 16 | 196 | 6.4 | 19.3 | 0.00 | 0.00 | 0.00 | 56 | 1009.7 |
| 20260507144428 | 16 | 159 | 9.7 | 22.5 | 0.00 | 0.00 | 0.00 | 55 | 1009.8 |
| 20260507143927 | 16 | 176 | 14.5 | 25.7 | 0.00 | 0.00 | 0.00 | 56 | 1009.7 |
| 20260507142929 | 16 | 193 | 9.7 | 19.3 | 0.00 | 0.00 | 0.00 | 57 | 1009.7 |
| 20260507142432 | 16 | 180 | 11.3 | 20.9 | 0.00 | 0.00 | 0.00 | 56 | 1009.8 |
| 20260507141930 | 16 | 162 | 9.7 | 20.9 | 0.00 | 0.00 | 0.00 | 57 | 1009.9 |
| 20260507141431 | 16 | 157 | 8.0 | 20.9 | 0.00 | 0.00 | 0.00 | 56 | 1009.9 |
| 20260507140928 | 16 | 231 | 6.4 | 20.9 | 0.00 | 0.00 | 0.00 | 56 | 1010.0 |
| 20260507140431 | 16 | 306 | 3.2 | 16.1 | 0.00 | 0.00 | 0.00 | 57 | 1009.9 |
| 20260507135430 | 16 | 238 | 3.2 | 6.4 | 0.00 | 0.00 | 0.00 | 58 | 1010.0 |
| 20260507134926 | 16 | 188 | 1.6 | 11.3 | 0.00 | 0.00 | 0.00 | 60 | 1010.0 |
| 20260507134426 | 16 | 172 | 3.2 | 16.1 | 0.00 | 0.00 | 0.00 | 57 | 1010.1 |
| 20260507133926 | 17 | 185 | 9.7 | 16.1 | 0.00 | 0.00 | 0.00 | 54 | 1010.2 |
| 20260507133425 | 17 | 130 | 6.4 | 17.7 | 0.00 | 0.00 | 0.00 | 53 | 1010.1 |
| 20260507132924 | 17 | 173 | 4.8 | 17.7 | 0.00 | 0.00 | 0.00 | 52 | 1010.0 |
| 20260507132425 | 17 | 213 | 6.4 | 19.3 | 0.00 | 0.00 | 0.00 | 52 | 1010.0 |
| 20260507131924 | 17 | 183 | 4.8 | 19.3 | 0.00 | 0.00 | 0.00 | 51 | 1009.9 |
| 20260507130927 | 17 | 235 | 3.2 | 16.1 | 0.00 | 0.00 | 0.00 | 53 | 1010.0 |
| 20260507130428 | 16 | 154 | 4.8 | 17.7 | 0.00 | 0.00 | 0.00 | 51 | 1010.0 |
| 20260507125926 | 16 | 282 | 3.2 | 17.7 | 0.00 | 0.00 | 0.00 | 53 | 1010.0 |
| 20260507124927 | 16 | 228 | 6.4 | 14.5 | 0.00 | 0.00 | 0.00 | 53 | 1010.1 |
| 20260507124428 | 16 | 183 | 4.8 | 14.5 | 0.00 | 0.00 | 0.00 | 55 | 1010.1 |
| 20260507122925 | 15 | 195 | 3.2 | 9.7 | 0.00 | 0.00 | 0.00 | 54 | 1010.3 |